Terminal Aerodrome Forecast
Issued by NWS Burlington, VT

Home | Current Version | Previous Version | Text Only | Print | Product List | Glossary On
Versions: 1 2 3 4 5 6 7 8 9 10 11 12 13 14 15 16
000
FTUS41 KBTV 010423 AAB
TAFBTV
TAF AMD
KBTV 010423Z 0104/0124 34004KT P6SM -SHSN OVC080
     FM011100 34005KT P6SM BKN040
     FM011400 34008G17KT P6SM SCT040=

USA.gov is the U.S. government's official web portal to all federal, state and local government web resources and services.